Notices

What's New in latest Release from April 7th, 2021:

- Updated Glossary, including Speed of Maximum Gust, and Total Hourly Precipitation

- Updated national and regional climate services offices contacts and prices information

- Addition of station inventory lists for 1981-2010, 1971-2000, and 1961-1990 Normals.

If you haven't already, please take our survey and provide feedback about our website: https://eccc.sondage-survey.ca/f/LanguageSelection.aspx?s=442ca660-fcf1-47c0-95a9-59707d6fd709

Hourly Data Report for November 12, 2019

MIRAMICHI RCS
NEW BRUNSWICK
Current Station Operator: ECCC - MSC

47°00'34.000" N
65°27'54.000" W
33.00 m
8100989
71744
ACQ

Download Data

Hourly Data (November 2019)
Hourly Data Report for November 12, 2019
TIME
LST
Temp Definition
°C
Dew Point Definition
°C
Rel Hum Definition
%
Precip. Amount Definition
mm

Wind Dir Definition
10's deg

Wind Spd Definition
km/h
Visibility Definition
km
Stn Press Definition
kPa
Hmdx Definition


Wind Chill Definition


Weather Definition


00:00 -3.5 -9.6 63 0.0 6 8   102.03   -7 LegendNANA
01:00 -4.3 -7.9 76 0.0 2 9   101.98   -8 LegendNANA
02:00 -4.8 -6.4 89 0.0 4 12   101.85   -10 LegendNANA
03:00 -4.8 -5.9 92 1.1 4 10   101.78   -9 LegendNANA
04:00 -4.3 -5.4 92 1.3 3 17   101.55   -10 LegendNANA
05:00 -4.2 -5.3 92 1.6 4 15   101.36   -10 LegendNANA
06:00 -3.7 -4.5 94 2.3 3 13   101.13   -9 LegendNANA
07:00 -0.7 -1.1 97 1.6 6 19   100.93   -6 LegendNANA
08:00 0.3 -0.1 97 1.6 6 26   100.75     LegendNANA
09:00 1.3 0.8 96 2.0 6 26   100.61     LegendNANA
10:00 1.9 1.4 96 2.2 6 26   100.32     LegendNANA
11:00 2.6 2.2 97 0.0 6 24   100.10     LegendNANA
12:00 3.1 2.8 98 0.2 7 18   99.90     LegendNANA
13:00 3.5 3.3 99 0.6 35 3   99.82     LegendNANA
14:00 2.5 2.1 98 0.5 36 6   99.68     LegendNANA
15:00 2.2 1.9 97 0.2 2 2   99.62     LegendNANA
16:00 2.1 1.8 98 1.2 30 2   99.55     LegendNANA
17:00 1.6 1.3 98 1.1 30 4   99.56     LegendNANA
18:00 1.4 1.1 98 1.0 27 7   99.51     LegendNANA
19:00 0.9 0.5 98 0.8 25 9   99.49     LegendNANA
20:00 0.5 0.2 97 0.5 24 10   99.51     LegendNANA
21:00 0.5 0.1 97 0.2 24 14   99.50     LegendNANA
22:00 -0.3 -2.2 87 0.2 25 22   99.51   -6 LegendNANA
23:00 -1.7 -4.3 82 0.0 25 24   99.52   -8 LegendNANA

Notes on Data Quality.

Legend

  • E = Estimated
  • M = Missing
  • NA = Not Available*
  • [empty] = Indicates an unobserved value
Date modified: